Hourly Data Report for March 08, 2020

TORONTO CITY
ONTARIO
Current Station Operator: ECCC - MSC

43°40'00.000" N
79°24'00.000" W
112.50 m
6158355
71508
XTO

Download Data

Hourly Data (March 2020)
Hourly Data Report for March 8, 2020
TIME
LST
Temp Definition
°C
Dew Point Definition
°C
Rel Hum Definition
%
Precip. Amount Definition
mm

Wind Dir Definition
10's deg

Wind Spd Definition
km/h
Visibility Definition
km
Stn Press Definition
kPa
Hmdx Definition


Wind Chill Definition


Weather Definition


00:00 0.8 -4.6 67 0.0       101.41     LegendNANA
01:00 1.2 -3.9 68 0.0       101.39     LegendNANA
02:00 1.4 -3.5 69 0.0       101.42     LegendNANA
03:00 1.8 -3.7 66 0.0       101.37     LegendNANA
04:00 2.0 -3.1 69 0.0       101.36     LegendNANA
05:00 1.6 -2.6 73 0.0       101.34     LegendNANA
06:00 1.7 -2.3 75 0.0       101.36     LegendNANA
07:00 1.9 -2.6 72 0.0       101.39     LegendNANA
08:00 3.0 -2.5 67 0.0       101.39     LegendNANA
09:00 4.8 -2.6 59 0.0       101.37     LegendNANA
10:00 6.8 -3.0 50 0.0       101.36     LegendNANA
11:00 7.6 -3.5 45 0.0       101.34     LegendNANA
12:00 8.7 -3.8 41 0.0       101.26     LegendNANA
13:00 8.8 -1.9 47 0.0       101.17     LegendNANA
14:00 9.8 -1.8 44 0.3       101.04     LegendNANA
15:00 9.6 -1.4 46 0.2       100.96     LegendNANA
16:00 10.0 -2.5 42 0.0       100.87     LegendNANA
17:00 9.9 -2.7 41 0.0       100.85     LegendNANA
18:00 10.0 -5.2 34 0.0       100.81     LegendNANA
19:00 8.9 -4.5 38 0.0       100.82     LegendNANA
20:00 8.7 -4.4 39 0.0       100.78     LegendNANA
21:00 8.1 -2.7 46 0.0       100.78     LegendNANA
22:00 8.7 -3.0 44 0.0       100.73     LegendNANA
23:00 8.6 -3.2 43 0.0       100.70     LegendNANA

Notes on Data Quality.

Legend

  • E = Estimated
  • M = Missing
  • NA = Not Available*
  • [empty] = Indicates an unobserved value
Date modified: